Lancaster, OH

5:30 AM EDT on April 20, 2018 (GMT -0400)
Fairfield County

Weather History for KLHQ - April, 2013

Change the Weather History Date:

Friday, April 26, 2013

  Actual Average Record
Temperature  
Mean Temperature 46 °F -  
Max Temperature 63 °F 63 °F 88 °F (1942)
Min Temperature 30 °F 39 °F 26 °F (1972)
Degree Days  
Heating Degree Days 19    
Moisture  
Dew Point 32 °F    
Average Humidity 62    
Maximum Humidity 89    
Minimum Humidity 29    
Precipitation  
Precipitation 0.00 in - - ()
Sea Level Pressure  
Sea Level Pressure 30.42 in    
Wind  
Wind Speed 1 mph (NE)    
Max Wind Speed 7 mph    
Max Gust Speed -    
Visibility 10 miles    
Events      
Averages and records for this station are not official NWS values.
T = Trace of Precipitation, MM = Missing Value Source: NWS Daily Summary

Daily Weather History Graph

Daily Weather History Graph

Search for Another Location

Airport or City:

Astronomy

Apr. 26, 2013 Rise Set
Actual Time 6:37 AM EDT 8:20 PM EDT
Civil Twilight 6:08 AM EDT 8:49 PM EDT
Nautical Twilight 5:33 AM EDT 9:23 PM EDT
Astronomical Twilight 4:56 AM EDT 10:01 PM EDT
Moon 9:41 PM EDT (4/26) 7:03 AM EDT (4/26)
Length of Visible Light 14h 40m
Length of Day
13h 42m
Full, 99% of the Moon is Illuminated
Apr 26
Full
May 2
Last Quarter
May 9
New
May 18
First Quarter
May 25
Full

Hourly Weather History & Observations

Time (EDT) Temp. Dew Point Humidity Pressure Visibility Wind Dir Wind Speed Gust Speed Precip Events Conditions
12:53 AM 35.1 °F 30.9 °F 85% 30.40 in 10.0 mi Calm Calm - N/A   Partly Cloudy
1:53 AM 33.1 °F 30.0 °F 89% 30.41 in 10.0 mi Calm Calm - N/A   Clear
2:53 AM 33.1 °F 28.9 °F 85% 30.40 in 10.0 mi Calm Calm - N/A   Clear
3:53 AM 30.9 °F 28.0 °F 89% 30.40 in 10.0 mi Calm Calm - N/A   Clear
4:53 AM 30.9 °F 27.0 °F 85% 30.42 in 10.0 mi Calm Calm - N/A   Clear
5:53 AM 30.0 °F 27.0 °F 88% 30.43 in 10.0 mi Calm Calm - N/A   Clear
6:53 AM 30.0 °F 27.0 °F 88% 30.45 in 10.0 mi Calm Calm - N/A   Clear
7:53 AM 34.0 °F 30.9 °F 89% 30.47 in 10.0 mi Calm Calm - N/A   Clear
8:53 AM 42.1 °F 33.1 °F 70% 30.48 in 10.0 mi Calm Calm - N/A   Clear
9:53 AM 50.0 °F 33.1 °F 52% 30.47 in 10.0 mi Variable 3.5 mph - N/A   Clear
10:53 AM 52.0 °F 32.0 °F 47% 30.47 in 10.0 mi Variable 6.9 mph - N/A   Clear
11:53 AM 53.1 °F 32.0 °F 45% 30.47 in 10.0 mi ESE 6.9 mph - N/A   Clear
12:53 PM 55.0 °F 28.0 °F 35% 30.47 in 10.0 mi SSE 5.8 mph - N/A   Clear
1:53 PM 57.9 °F 30.0 °F 35% 30.46 in 10.0 mi NE 5.8 mph - N/A   Clear
2:53 PM 60.1 °F 30.0 °F 32% 30.44 in 10.0 mi Calm Calm - N/A   Clear
3:53 PM 60.1 °F 30.0 °F 32% 30.40 in 10.0 mi Calm Calm - N/A   Clear
4:53 PM 62.1 °F 28.9 °F 29% 30.38 in 10.0 mi Calm Calm - N/A   Clear
5:53 PM 62.1 °F 32.0 °F 32% 30.38 in 10.0 mi North 5.8 mph - N/A   Clear
6:53 PM 61.0 °F 30.9 °F 32% 30.38 in 10.0 mi NNE 4.6 mph - N/A   Clear
7:53 PM 57.9 °F 36.0 °F 44% 30.38 in 10.0 mi North 3.5 mph - N/A   Clear
8:53 PM 52.0 °F 39.9 °F 63% 30.38 in 10.0 mi Calm Calm - N/A   Clear
9:53 PM 48.0 °F 41.0 °F 77% 30.39 in 10.0 mi Calm Calm - N/A   Clear
10:53 PM 44.1 °F 39.0 °F 82% 30.39 in 10.0 mi Calm Calm - N/A   Clear
11:53 PM 41.0 °F 36.0 °F 82% 30.38 in 10.0 mi Calm Calm - N/A   Clear